BVX77K LIMC-EDDP

Flight info

Callsign BVX77K
Flight time N/A
Altitude 34000
Route PEPAG DCT ABESI N851 UTAVO DCT ROLSA/N0470F350 DCT LOKTA DCT ETAGO DCT IBAGA T435 PIBAD/N0469F310 T954 GOXLI GOXLI1V
Aircraft B77W/H-SDE1E2E3FGHIJ2J3J4J5M1RWXY/LB1D1

Departure

Time N/A
Airport Milan Malpensa International Airport (LIMC)

Arrival

Time 2026-05-05 12:32
Airport Leipzig/Halle Airport (EDDP)
Time Latitude Longitude Altitude Speed Heading
2026-05-05 12:00 49.30265 10.07517 33808 ft 526 kts 37°
2026-05-05 12:00 49.33252 10.10765 33821 ft 525 kts 36°
2026-05-05 12:00 49.39202 10.17244 33803 ft 523 kts 36°
2026-05-05 12:01 49.45127 10.23718 33825 ft 522 kts 36°
2026-05-05 12:01 49.51030 10.30187 33825 ft 520 kts 36°
2026-05-05 12:02 49.56915 10.36658 33782 ft 519 kts 36°
2026-05-05 12:02 49.62779 10.43124 33797 ft 517 kts 36°
2026-05-05 12:03 49.68622 10.49587 33804 ft 516 kts 36°
2026-05-05 12:03 49.74492 10.55977 33809 ft 515 kts 32°
2026-05-05 12:04 49.80783 10.61240 33818 ft 513 kts 25°
2026-05-05 12:04 49.87141 10.66152 33811 ft 514 kts 25°
2026-05-05 12:05 49.93522 10.71185 33819 ft 514 kts 26°
2026-05-05 12:05 49.99891 10.76290 33813 ft 515 kts 26°
2026-05-05 12:06 50.06261 10.81402 33822 ft 515 kts 26°
2026-05-05 12:06 50.12777 10.85984 33811 ft 514 kts 21°
2026-05-05 12:07 50.19388 10.90210 33825 ft 513 kts 20°
2026-05-05 12:07 50.25946 10.94455 33828 ft 513 kts 21°
2026-05-05 12:08 50.32533 10.98793 33836 ft 513 kts 21°
2026-05-05 12:08 50.39123 11.03146 33007 ft 519 kts 21°
2026-05-05 12:09 50.42425 11.05432 32205 ft 517 kts 22°
2026-05-05 12:09 50.45663 11.07790 31640 ft 510 kts 24°
2026-05-05 12:09 50.48859 11.10156 31078 ft 504 kts 24°
2026-05-05 12:09 50.52018 11.12490 30509 ft 498 kts 24°
2026-05-05 12:10 50.55142 11.14779 29984 ft 493 kts 24°
2026-05-05 12:10 50.58244 11.17041 29356 ft 489 kts 24°
2026-05-05 12:10 50.61314 11.19277 28779 ft 483 kts 24°
2026-05-05 12:10 50.64352 11.21492 28225 ft 478 kts 24°
2026-05-05 12:11 50.67353 11.23673 27679 ft 473 kts 24°
2026-05-05 12:11 50.70332 11.25833 27122 ft 468 kts 24°
2026-05-05 12:11 50.73277 11.27970 26588 ft 464 kts 24°
2026-05-05 12:11 50.76201 11.30096 26034 ft 460 kts 23°
2026-05-05 12:12 50.79089 11.32199 25536 ft 456 kts 23°
2026-05-05 12:12 50.81953 11.34288 25009 ft 452 kts 24°
2026-05-05 12:12 50.84801 11.36369 24491 ft 449 kts 24°
2026-05-05 12:12 50.87627 11.38437 23980 ft 446 kts 24°
2026-05-05 12:13 50.90433 11.40492 23452 ft 443 kts 24°
2026-05-05 12:13 50.93221 11.42538 22845 ft 440 kts 24°
2026-05-05 12:13 50.95953 11.44546 22312 ft 437 kts 24°
2026-05-05 12:13 50.98695 11.46565 21787 ft 433 kts 24°
2026-05-05 12:14 51.01416 11.48570 21286 ft 429 kts 24°
2026-05-05 12:14 51.04116 11.50561 20780 ft 426 kts 24°
2026-05-05 12:14 51.06793 11.52538 20289 ft 423 kts 24°
2026-05-05 12:14 51.09415 11.54565 19771 ft 415 kts 30°
2026-05-05 12:15 51.11627 11.57488 19303 ft 414 kts 50°
2026-05-05 12:15 51.13156 11.61324 18820 ft 407 kts 64°
2026-05-05 12:15 51.14411 11.65339 18349 ft 405 kts 64°
2026-05-05 12:15 51.15670 11.69322 17807 ft 405 kts 64°
2026-05-05 12:16 51.16954 11.73326 17271 ft 404 kts 64°
2026-05-05 12:16 51.18237 11.77294 16779 ft 402 kts 63°
2026-05-05 12:16 51.19523 11.81245 16273 ft 400 kts 63°
2026-05-05 12:16 51.20800 11.85172 15804 ft 399 kts 63°
2026-05-05 12:17 51.22076 11.89099 15307 ft 397 kts 63°
2026-05-05 12:17 51.23164 11.93085 14798 ft 390 kts 76°
2026-05-05 12:17 51.23468 11.97305 14344 ft 379 kts 90°
2026-05-05 12:17 51.23571 12.01495 13861 ft 378 kts 89°
2026-05-05 12:18 51.23738 12.05636 13367 ft 378 kts 88°
2026-05-05 12:18 51.23940 12.09860 12843 ft 377 kts 87°
2026-05-05 12:18 51.24146 12.14032 12352 ft 376 kts 87°
2026-05-05 12:18 51.24346 12.18124 11880 ft 374 kts 87°
2026-05-05 12:19 51.24542 12.22259 11404 ft 373 kts 87°
2026-05-05 12:19 51.24735 12.26379 10926 ft 371 kts 87°
2026-05-05 12:19 51.24925 12.30475 10530 ft 368 kts 87°
2026-05-05 12:19 51.25111 12.34484 10327 ft 357 kts 87°
2026-05-05 12:20 51.25411 12.38368 9841 ft 350 kts 76°
2026-05-05 12:20 51.26312 12.41972 9336 ft 347 kts 65°
2026-05-05 12:20 51.27313 12.45325 8791 ft 323 kts 66°
2026-05-05 12:20 51.28213 12.48496 8249 ft 304 kts 66°
2026-05-05 12:21 51.29063 12.51498 7718 ft 289 kts 65°
2026-05-05 12:21 51.29911 12.54329 7218 ft 277 kts 65°
2026-05-05 12:21 51.30733 12.57059 6737 ft 268 kts 64°
2026-05-05 12:21 51.31508 12.59721 6237 ft 260 kts 70°
2026-05-05 12:22 51.31909 12.62491 5708 ft 252 kts 82°
2026-05-05 12:22 51.32133 12.65227 5195 ft 244 kts 83°
2026-05-05 12:22 51.32328 12.67883 4709 ft 237 kts 83°
2026-05-05 12:22 51.32576 12.70454 4178 ft 231 kts 71°
2026-05-05 12:23 51.33442 12.72537 3655 ft 224 kts 37°
2026-05-05 12:23 51.34846 12.73434 3316 ft 220 kts
2026-05-05 12:23 51.36395 12.73229 3091 ft 226 kts 353°
2026-05-05 12:23 51.37957 12.72891 3061 ft 228 kts 353°
2026-05-05 12:24 51.39537 12.72552 3011 ft 230 kts 353°
2026-05-05 12:24 51.41105 12.72718 2981 ft 227 kts 21°
2026-05-05 12:24 51.42367 12.74193 3009 ft 228 kts 54°
2026-05-05 12:24 51.42930 12.76543 3005 ft 230 kts 86°
2026-05-05 12:25 51.42616 12.79035 3002 ft 232 kts 118°
2026-05-05 12:25 51.41512 12.80900 3000 ft 235 kts 150°
2026-05-05 12:25 51.39951 12.81563 2998 ft 235 kts 182°
2026-05-05 12:25 51.38403 12.80817 2972 ft 235 kts 215°
2026-05-05 12:26 51.37341 12.78893 2995 ft 230 kts 247°
2026-05-05 12:26 51.37107 12.76449 3007 ft 220 kts 279°
2026-05-05 12:26 51.37550 12.74158 2991 ft 213 kts 295°
2026-05-05 12:26 51.38185 12.72033 2993 ft 211 kts 297°
2026-05-05 12:27 51.38851 12.69888 3019 ft 226 kts 297°
2026-05-05 12:27 51.39569 12.67565 3002 ft 235 kts 297°
2026-05-05 12:27 51.40282 12.65230 2992 ft 231 kts 297°
2026-05-05 12:27 51.40974 12.62946 3023 ft 232 kts 296°
2026-05-05 12:28 51.41681 12.60598 3017 ft 236 kts 296°
2026-05-05 12:28 51.42390 12.58230 2989 ft 234 kts 296°
2026-05-05 12:28 51.43087 12.55897 2972 ft 229 kts 296°
2026-05-05 12:28 51.43767 12.53634 2959 ft 220 kts 296°
2026-05-05 12:29 51.44401 12.51485 3007 ft 208 kts 292°
2026-05-05 12:29 51.44584 12.48944 3024 ft 255 kts 263°
2026-05-05 12:29 51.43905 12.46302 2990 ft 260 kts 233°
2026-05-05 12:29 51.42613 12.44332 2766 ft 255 kts 225°
2026-05-05 12:30 51.41721 12.41965 2470 ft 247 kts 256°
2026-05-05 12:30 51.41733 12.39312 2157 ft 231 kts 284°
2026-05-05 12:30 51.41958 12.36897 1859 ft 212 kts 269°
2026-05-05 12:30 51.41805 12.34650 1619 ft 193 kts 267°
2026-05-05 12:31 51.41730 12.32585 1372 ft 177 kts 268°
2026-05-05 12:31 51.41642 12.30709 1118 ft 161 kts 268°
2026-05-05 12:31 51.41561 12.29016 929 ft 143 kts 267°
2026-05-05 12:31 51.41487 12.27441 760 ft 143 kts 267°
2026-05-05 12:32 51.41409 12.25857 549 ft 142 kts 268°
2026-05-05 12:32 51.41342 12.24327 481 ft 127 kts 266°
2026-05-05 12:32 51.41291 12.23319 469 ft 62 kts 264°
2026-05-05 12:32 51.41238 12.22705 468 ft 46 kts 250°
2026-05-05 12:33 51.41145 12.22468 465 ft 21 kts 235°
2026-05-05 12:33 51.41083 12.22251 464 ft 22 kts 254°
2026-05-05 12:33 51.41061 12.22012 464 ft 22 kts 264°
2026-05-05 12:33 51.41053 12.21770 465 ft 22 kts 267°
2026-05-05 12:34 51.41042 12.21526 460 ft 23 kts 265°
2026-05-05 12:34 51.41027 12.21260 456 ft 25 kts 265°
2026-05-05 12:34 51.41015 12.20966 447 ft 28 kts 270°
2026-05-05 12:34 51.41015 12.20864 445 ft 1 kts 270°
2026-05-05 12:35 51.41015 12.20839 445 ft 3 kts 268°
2026-05-05 12:35 51.41011 12.20777 445 ft 9 kts 261°
2026-05-05 12:35 51.40999 12.20695 430 ft 13 kts 255°
2026-05-05 12:35 51.40922 12.20679 429 ft 15 kts 121°
2026-05-05 12:36 51.40919 12.20865 446 ft 19 kts 87°
2026-05-05 12:36 51.40930 12.21083 454 ft 20 kts 85°
2026-05-05 12:36 51.40942 12.21333 455 ft 21 kts 86°
2026-05-05 12:36 51.41033 12.21509 460 ft 22 kts 47°
2026-05-05 12:37 51.41047 12.21619 463 ft 10 kts 90°
2026-05-05 12:37 51.41047 12.21755 465 ft 15 kts 90°
2026-05-05 12:37 51.41060 12.21951 461 ft 21 kts 83°
2026-05-05 12:37 51.41075 12.22216 464 ft 27 kts 85°
2026-05-05 12:38 51.41091 12.22543 465 ft 30 kts 84°
2026-05-05 12:38 51.41104 12.22899 468 ft 33 kts 85°
2026-05-05 12:38 51.41119 12.23211 471 ft 22 kts 85°
2026-05-05 12:38 51.41128 12.23436 480 ft 22 kts 86°
2026-05-05 12:39 51.41140 12.23717 478 ft 29 kts 86°
2026-05-05 12:39 51.41156 12.24073 477 ft 35 kts 85°
2026-05-05 12:39 51.41139 12.24403 470 ft 27 kts 122°
2026-05-05 12:39 51.41002 12.24617 471 ft 31 kts 171°
2026-05-05 12:40 51.40946 12.24540 467 ft 3 kts 264°
2026-05-05 12:40 51.40944 12.24518 466 ft 0 kts 265°